Location: Mercogliano
(40.9167°N, 14.7333°E)
Time: 07:33:02
(UTC+00:00)

Cosmos 2150 Rocket - Pass Details

Date: 23 January 2021
Orbit: 748 x 808 km, 74.0° (Epoch: 04 March)

Event Time Altitude Azimuth Distance (km) Brightness Sun altitude
Exits shadow 03:24:17 - 4° (N) 3,034 7.2 -32.9°
Reaches altitude 10° 03:27:58 10° 35° (NE) 2,351 6.9 -32.2°
Maximum altitude 03:29:23 11° 51° (NE) 2,288 7.0 -31.9°
Drops below altitude 10° 03:30:48 10° 66° (ENE) 2,359 7.3 -31.7°
Sets 03:35:22 0° 102° (ESE) 3,298 8.4 -30.8°
